FW4617 Weather Reports


Display with metric or nautical units.
time (UTC)temp
F
wind
direction
speed
MPH
gust
MPH
rain 1hr
in
rain 24hr
in
rain mn
in
humidity
%
barometer
mb
20260504174329 76 220 3.0 6.0 0.00 0.00 0.00 52 1015.0
20260504173826 75 185 3.0 6.0 0.00 0.00 0.00 47 1015.0
20260504173322 76 225 9.0 10.0 0.00 0.00 0.00 52 1014.9
20260504172820 78 185 5.0 6.0 0.00 0.00 0.00 54 1015.0
20260504172316 77 196 3.0 3.0 0.00 0.00 0.00 54 1015.3
20260504171812 77 210 1.0 2.0 0.00 0.00 0.00 49 1015.3
20260504171309 76 188 3.0 3.0 0.00 0.00 0.00 51 1015.8
20260504170806 76 184 2.0 3.0 0.00 0.00 0.00 52 1015.5
20260504170303 74 214 7.0 9.0 0.00 0.00 0.00 52 1015.6
20260504160221 72 215 2.0 3.0 0.00 0.00 0.00 56 1016.4
20260504151150 72 204 6.0 7.0 0.00 0.00 0.00 60 1016.5
20260504150647 70 212 3.0 3.0 0.00 0.00 0.00 63 1016.5
20260504150143 69 189 4.0 5.0 0.00 0.00 0.00 63 1016.4
20260504141113 66 206 3.0 3.0 0.00 0.00 0.00 70 1016.9
20260504140609 66 179 1.0 2.0 0.00 0.00 0.00 71 1016.5
20260504140105 65 183 2.0 2.0 0.00 0.00 0.00 72 1016.6
20260504130533 56 194 2.0 2.0 0.00 0.00 0.00 85 1016.9
20260504110421 46 207 1.0 1.0 0.00 0.00 0.00 99 1016.0
20260504100337 47 193 0.0 0.0 0.00 0.00 0.00 99 1016.1
20260504081731 47 213 1.0 1.0 0.00 0.00 0.00 99 1015.9
20260504081227 46 214 0.0 0.0 0.00 0.00 0.00 99 1015.9
20260504080724 46 190 0.0 0.0 0.00 0.00 0.00 99 1015.9
20260504080221 46 186 1.0 1.0 0.00 0.00 0.00 99 1016.1
20260504070148 45 190 0.0 0.0 0.00 0.00 0.00 99 1016.9
20260504060109 46 188 0.0 0.0 0.00 0.00 0.00 99 1017.3
20260504050537 46 198 0.0 0.0 0.00 0.00 0.00 99 1017.8
20260504045531 47 198 0.0 0.0 0.00 0.00 0.00 99 1017.7
20260504045026 47 198 0.0 0.0 0.00 0.00 0.00 99 1017.6
20260504044524 47 198 0.0 0.0 0.00 0.00 0.00 99 1017.8
20260504044020 47 198 0.0 0.0 0.00 0.00 0.00 99 1017.6
20260504043517 48 198 0.0 0.0 0.00 0.00 0.00 99 1017.7
20260504043015 48 198 0.0 0.0 0.00 0.00 0.00 99 1017.9
20260504042512 48 198 0.0 0.0 0.00 0.00 0.00 99 1017.9
20260504042009 48 198 0.0 0.0 0.00 0.00 0.00 99 1017.8
20260504041504 48 198 0.0 0.0 0.00 0.00 0.00 99 1018.0
20260504041000 48 198 0.0 0.0 0.00 0.00 0.00 99 1017.8
20260504040458 49 198 0.0 0.0 0.00 0.00 0.00 99 1017.9
20260504035954 48 198 0.0 0.0 0.00 0.00 0.00 99 1017.7
20260504035452 49 198 0.0 0.0 0.00 0.00 0.00 99 1017.9
20260504034948 49 198 0.0 0.0 0.00 0.00 0.00 99 1017.9
20260504034446 49 198 0.0 0.0 0.00 0.00 0.00 99 1018.0
20260504033942 49 198 0.0 0.0 0.00 0.00 0.00 98 1018.1
20260504033440 49 198 0.0 0.0 0.00 0.00 0.00 98 1018.1
20260504032937 49 198 0.0 0.0 0.00 0.00 0.00 98 1018.0
20260504032434 49 198 0.0 0.0 0.00 0.00 0.00 98 1017.9
20260504031931 50 198 0.0 0.0 0.00 0.00 0.00 98 1018.0
20260504031428 50 198 0.0 0.0 0.00 0.00 0.00 97 1018.1
20260504030925 50 198 0.0 0.0 0.00 0.00 0.00 97 1017.9
20260504030422 50 198 0.0 0.0 0.00 0.00 0.00 96 1017.9
20260504025918 50 198 0.0 0.0 0.00 0.00 0.00 96 1017.8
20260504025415 50 198 0.0 0.0 0.00 0.00 0.00 96 1018.2
20260504024912 51 198 0.0 1.0 0.00 0.00 0.00 96 1017.8
20260504024409 51 198 0.0 0.0 0.00 0.00 0.00 95 1018.0
20260504023906 51 198 0.0 0.0 0.00 0.00 0.00 94 1017.8
20260504023402 51 198 0.0 0.0 0.00 0.00 0.00 94 1018.0
20260504022857 51 198 0.0 0.0 0.00 0.00 0.00 94 1018.0
20260504022354 52 198 0.0 0.0 0.00 0.00 0.00 94 1017.8
20260504021850 52 198 0.0 0.0 0.00 0.00 0.00 92 1017.8
20260504021348 52 198 0.0 0.0 0.00 0.00 0.00 91 1017.8
20260504020845 53 198 0.0 0.0 0.00 0.00 0.00 91 1017.5
20260504020342 53 198 0.0 0.0 0.00 0.00 0.00 90 1017.6
20260504015838 53 198 0.0 0.0 0.00 0.00 0.00 90 1017.6
20260504015334 53 198 0.0 0.0 0.00 0.00 0.00 89 1017.6
20260504014831 54 198 0.0 0.0 0.00 0.00 0.00 88 1017.4
20260504014326 54 198 0.0 0.0 0.00 0.00 0.00 88 1017.4
20260504013824 54 198 0.0 0.0 0.00 0.00 0.00 88 1017.3
20260504013322 55 198 0.0 0.0 0.00 0.00 0.00 86 1017.3
20260504012819 55 198 0.0 0.0 0.00 0.00 0.00 85 1017.3
20260504012316 55 198 0.0 0.0 0.00 0.00 0.00 84 1017.3
20260504011814 56 198 0.0 0.0 0.00 0.00 0.00 83 1017.2
20260504011310 56 198 0.0 0.0 0.00 0.00 0.00 83 1017.2
20260504010806 57 198 0.0 0.0 0.00 0.00 0.00 81 1017.2
20260504010301 57 198 0.0 0.0 0.00 0.00 0.00 81 1017.1
20260504005758 58 198 0.0 0.0 0.00 0.00 0.00 79 1017.0
20260504005255 58 198 0.0 0.0 0.00 0.00 0.00 79 1017.1
20260504004753 59 198 0.0 0.0 0.00 0.00 0.00 77 1016.9
20260504004250 59 198 0.0 0.0 0.00 0.00 0.00 77 1017.0
20260504003746 60 198 0.0 0.0 0.00 0.00 0.00 76 1016.9
20260504003243 61 198 0.0 0.0 0.00 0.00 0.00 76 1017.1
20260504002740 61 198 0.0 0.0 0.00 0.00 0.00 73 1017.1
20260504002237 62 198 0.0 0.0 0.00 0.00 0.00 71 1017.0
20260504001735 63 198 0.0 0.0 0.00 0.00 0.00 69 1017.1
20260504001231 64 198 0.0 0.0 0.00 0.00 0.00 70 1017.1
20260504000728 64 198 0.0 0.0 0.00 0.00 0.00 67 1017.1
20260504000226 66 198 0.0 0.0 0.00 0.00 0.00 66 1017.0
20260503235723 65 213 0.0 0.0 0.00 0.00 0.00 66 1017.0
20260503235220 66 212 0.0 0.0 0.00 0.00 0.00 66 1016.9
20260503234718 66 200 0.0 0.0 0.00 0.00 0.00 65 1016.9
20260503234216 67 200 0.0 0.0 0.00 0.00 0.00 64 1016.9
20260503233713 68 200 0.0 0.0 0.00 0.00 0.00 56 1017.1
20260503233208 68 201 0.0 0.0 0.00 0.00 0.00 55 1017.0
20260503232705 69 186 1.0 1.0 0.00 0.00 0.00 52 1017.1
20260503232202 70 214 0.0 0.0 0.00 0.00 0.00 51 1017.2
20260503231701 70 278 2.0 2.0 0.00 0.00 0.00 46 1017.3
20260503231157 70 281 3.0 3.0 0.00 0.00 0.00 45 1017.6
20260503230653 70 276 2.0 2.0 0.00 0.00 0.00 44 1017.3
20260503230151 70 197 1.0 1.0 0.00 0.00 0.00 46 1017.1
20260503225648 70 199 1.0 1.0 0.00 0.00 0.00 44 1017.4
20260503225148 70 215 2.0 2.0 0.00 0.00 0.00 45 1017.1
20260503224640 70 216 2.0 2.0 0.00 0.00 0.00 44 1017.2
20260503224138 70 288 1.0 2.0 0.00 0.00 0.00 45 1017.3
20260503223635 70 222 1.0 1.0 0.00 0.00 0.00 43 1017.3
20260503223131 70 223 4.0 6.0 0.00 0.00 0.00 46 1017.3
20260503222629 70 199 3.0 3.0 0.00 0.00 0.00 42 1017.3
20260503222126 70 197 3.0 3.0 0.00 0.00 0.00 41 1017.2
20260503221625 71 216 3.0 5.0 0.00 0.00 0.00 41 1017.3
20260503221122 71 326 3.0 5.0 0.00 0.00 0.00 42 1017.5
20260503220618 71 194 3.0 3.0 0.00 0.00 0.00 43 1017.6
20260503220115 71 200 1.0 1.0 0.00 0.00 0.00 41 1017.6
20260503215612 70 295 1.0 3.0 0.00 0.00 0.00 43 1017.5
20260503215108 70 213 2.0 3.0 0.00 0.00 0.00 43 1017.6
20260503214607 71 195 0.0 1.0 0.00 0.00 0.00 41 1017.6
20260503214103 71 198 1.0 1.0 0.00 0.00 0.00 42 1017.6
20260503213602 71 232 3.0 5.0 0.00 0.00 0.00 42 1017.7
20260503213058 71 209 1.0 2.0 0.00 0.00 0.00 43 1017.7
20260503212555 72 212 6.0 8.0 0.00 0.00 0.00 39 1017.9
20260503212053 71 206 1.0 3.0 0.00 0.00 0.00 44 1018.1
20260503211550 72 215 2.0 2.0 0.00 0.00 0.00 41 1018.2
20260503211045 73 255 4.0 6.0 0.00 0.00 0.00 41 1018.4
20260503210542 72 222 0.0 1.0 0.00 0.00 0.00 41 1018.1
20260503210038 71 210 2.0 2.0 0.00 0.00 0.00 40 1018.0
20260503205535 71 239 1.0 2.0 0.00 0.00 0.00 45 1018.3
20260503205031 71 187 7.0 7.0 0.00 0.00 0.00 41 1018.4
20260503204528 72 205 1.0 1.0 0.00 0.00 0.00 43 1018.6
20260503204025 73 325 3.0 5.0 0.00 0.00 0.00 40 1018.5
20260503203523 73 213 2.0 2.0 0.00 0.00 0.00 39 1018.5
20260503203019 73 213 2.0 2.0 0.00 0.00 0.00 38 1018.5
20260503202517 73 217 2.0 3.0 0.00 0.00 0.00 38 1019.0
20260503202015 73 231 2.0 2.0 0.00 0.00 0.00 40 1019.0
20260503201513 72 190 3.0 6.0 0.00 0.00 0.00 43 1019.0
20260503201010 73 295 3.0 3.0 0.00 0.00 0.00 39 1019.1
20260503200506 72 341 5.0 7.0 0.00 0.00 0.00 38 1019.6
20260503200002 72 208 2.0 2.0 0.00 0.00 0.00 42 1019.3
20260503195500 71 318 2.0 3.0 0.00 0.00 0.00 41 1019.4
20260503194956 71 223 4.0 5.0 0.00 0.00 0.00 43 1019.7
20260503194454 70 222 3.0 5.0 0.00 0.00 0.00 42 1019.7
20260503193949 70 227 9.0 13.0 0.00 0.00 0.00 41 1019.8
20260503193445 72 217 3.0 5.0 0.00 0.00 0.00 42 1020.0
20260503192940 71 301 4.0 5.0 0.00 0.00 0.00 42 1020.0
20260503192437 70 305 3.0 5.0 0.00 0.00 0.00 43 1020.1
20260503191932 69 302 3.0 5.0 0.00 0.00 0.00 42 1020.1
20260503191431 71 219 9.0 9.0 0.00 0.00 0.00 42 1020.1
20260503190927 70 185 1.0 2.0 0.00 0.00 0.00 43 1020.2
20260503190424 71 219 3.0 3.0 0.00 0.00 0.00 41 1020.4
20260503185921 71 172 2.0 2.0 0.00 0.00 0.00 41 1020.3
20260503185418 69 201 6.0 7.0 0.00 0.00 0.00 41 1020.5
20260503184916 67 218 8.0 11.0 0.00 0.00 0.00 43 1020.6
20260503184414 68 212 5.0 6.0 0.00 0.00 0.00 47 1020.8
20260503183910 71 201 2.0 3.0 0.00 0.00 0.00 40 1020.7
20260503183406 70 198 1.0 2.0 0.00 0.00 0.00 43 1021.0
20260503182904 70 357 4.0 6.0 0.00 0.00 0.00 41 1020.6
20260503182403 70 213 1.0 2.0 0.00 0.00 0.00 41 1021.0
20260503181859 69 202 3.0 5.0 0.00 0.00 0.00 43 1021.1
20260503181356 70 328 5.0 7.0 0.00 0.00 0.00 42 1021.1
20260503180852 71 131 1.0 2.0 0.00 0.00 0.00 43 1021.2
20260503180351 69 172 3.0 3.0 0.00 0.00 0.00 42 1021.3
20260503175847 69 315 4.0 7.0 0.00 0.00 0.00 45 1021.2
20260503175345 68 225 9.0 10.0 0.00 0.00 0.00 42 1021.5
20260503174840 69 331 3.0 5.0 0.00 0.00 0.00 45 1021.4